Stations météo

réclame
Mon MeteoGroup
Lille, France (7015): Température de l'air & dewpoint: 17.09.2017 22:00:00 - 23.09.2017 22:00:00 (CEST)Lille, France (7015): Température de l'air 5cm: 17.09.2017 22:00:00 - 23.09.2017 22:00:00 (CEST)Lille, France (7015): Température de l'air -20cm & Température de l'air -100cm: 17.09.2017 22:00:00 - 23.09.2017 22:00:00 (CEST)Lille, France (7015): Vitesse du vent & gusts: 17.09.2017 22:00:00 - 23.09.2017 22:00:00 (CEST)Lille, France (7015): Direction du vent: 17.09.2017 22:00:00 - 23.09.2017 22:00:00 (CEST)Lille, France (7015): reduced air pressure: 17.09.2017 22:00:00 - 23.09.2017 22:00:00 (CEST)Lille, France (7015): visibility: 17.09.2017 22:00:00 - 23.09.2017 22:00:00 (CEST)Lille, France (7015): Ensoleillement: 17.09.2017 22:00:00 - 23.09.2017 22:00:00 (CEST)Lille, France (7015): Quantités de précipitations: 17.09.2017 22:00:00 - 23.09.2017 22:00:00 (CEST)
Date & Time tt [°C] td [°C] tt 5cm [°C] tt -20cm [°C] tt -100cm [°C] ff [km/h] ff [knt] fx [km/h] fx [knt] dd ppp [hPa] vv [km] sd [min] rr [mm]
23.09.2017 22:00:00 - - - - - - - - - - - - - -
23.09.2017 21:00:00 14,7 9,9 13,7 16,1 15,9 11 6 14 8 ENE 1022,2 12 0 0,0
23.09.2017 20:00:00 15,6 10,1 14,5 16,3 15,9 10 6 13 7 ENE 1022,0 18 0 0,0
23.09.2017 19:00:00 17,3 10,4 17,5 16,5 15,9 9 5 16 9 ENE 1021,9 19 25 0,0
23.09.2017 18:00:00 18,2 9,0 19,2 16,4 15,9 9 5 18 10 E 1021,9 20 17 0,0
23.09.2017 17:00:00 18,6 9,4 20,5 16,2 15,9 8 5 18 10 NE 1022,1 20 2 0,0
23.09.2017 16:00:00 18,8 8,7 21,7 15,9 15,9 8 4 19 10 SSE 1022,6 39 8 0,0
23.09.2017 15:00:00 19,1 8,1 22,5 15,3 15,9 10 5 22 12 SE 1023,2 15 41 0,0
23.09.2017 14:00:00 19,0 10,3 21,8 14,7 15,9 10 5 24 13 ESE 1023,5 14 60 0,0
23.09.2017 13:00:00 17,5 10,8 19,4 14,1 15,9 11 6 19 11 E 1023,9 11 60 0,0
23.09.2017 12:00:00 16,5 11,4 17,6 13,6 15,9 11 6 17 9 E 1024,1 10 38 0,0
23.09.2017 11:00:00 14,6 11,9 15,8 13,3 15,9 6 4 12 6 E 1024,2 6 23 0,0
23.09.2017 10:00:00 12,1 11,0 12,5 13,2 15,9 7 4 12 7 ENE 1024,4 3,0 20 0,0
23.09.2017 09:00:00 10,1 9,8 5,7 13,3 15,9 4 2 6 4 NE 1024,4 3,4 26 0,0
23.09.2017 08:00:00 7,9 7,3 4,8 13,5 15,9 2 1 4 2 E 1024,2 0,3 0 0,0
23.09.2017 07:00:00 7,9 7,1 5,0 13,7 15,9 0 0 5 3 N 1024,1 0,5 0 0,0
23.09.2017 06:00:00 8,5 7,9 6,4 13,8 15,9 4 2 5 3 E 1023,9 0,6 0 0,0
23.09.2017 05:00:00 8,5 7,9 5,0 14,1 15,9 0 0 5 3 N 1024,3 2,0 0 0,0
23.09.2017 04:00:00 8,9 8,1 4,6 14,3 15,9 3 1 5 3 W 1024,3 0,2 0 0,0
23.09.2017 03:00:00 9,5 8,7 5,5 14,6 15,9 0 0 8 4 N 1024,4 2,7 0 0,0
23.09.2017 02:00:00 10,0 9,1 5,4 14,9 15,9 4 2 6 3 SSW 1024,3 0,5 0 0,0
23.09.2017 01:00:00 10,5 9,3 7,0 15,2 15,9 4 2 12 7 W 1024,1 6 0 0,0
23.09.2017 00:00:00 10,8 9,2 7,6 15,5 15,9 10 5 11 6 W 1024,2 11 0 0,0
22.09.2017 23:00:00 12,6 9,6 9,7 15,7 15,9 8 4 13 7 WSW 1024,1 16 0 0,0
22.09.2017 22:00:00 14,3 10,3 11,3 16,0 15,9 3 2 12 7 ENE 1023,8 25 0 0,0
22.09.2017 21:00:00 14,3 10,1 11,9 16,3 15,9 8 4 21 12 NNW 1023,4 22 0 0,0
22.09.2017 20:00:00 15,5 10,3 14,1 16,5 15,9 13 7 23 13 NW 1022,6 29 0 0,0
22.09.2017 19:00:00 17,3 10,4 16,8 16,6 15,9 16 9 23 13 NNW 1021,9 35 53 0,0
22.09.2017 18:00:00 19,6 9,5 19,3 16,6 15,9 7 4 20 11 W 1021,5 46 42 0,0
22.09.2017 17:00:00 20,4 8,7 19,6 16,4 15,9 10 5 20 11 W 1021,3 20 47 0,0
22.09.2017 16:00:00 20,6 9,8 21,2 16,1 15,9 13 7 27 15 WSW 1021,3 20 56 0,0
22.09.2017 15:00:00 19,4 9,6 22,5 15,6 15,9 11 6 31 17 W 1021,4 54 55 0,0
22.09.2017 14:00:00 18,6 10,7 18,4 15,1 15,9 16 8 35 19 W 1021,5 20 46 0,0
22.09.2017 13:00:00 16,7 12,0 17,9 14,8 15,9 12 6 21 11 WNW 1021,3 17 2 0,0
22.09.2017 12:00:00 16,5 13,6 17,3 14,5 15,9 9 5 18 10 WNW 1021,3 13 2 0,0
22.09.2017 11:00:00 15,0 13,5 14,4 14,3 15,9 11 6 15 8 W 1021,1 7 0 0,0
22.09.2017 10:00:00 14,1 13,0 13,3 14,1 15,9 7 4 12 6 WSW 1020,8 8 0 0,2
22.09.2017 09:00:00 13,4 12,1 13,1 14,1 16,0 3 2 9 5 SW 1020,3 9 0 0,0
22.09.2017 08:00:00 13,2 11,8 12,6 14,1 16,0 5 3 7 4 WSW 1020,0 12 0 0,0
22.09.2017 07:00:00 12,9 11,3 12,3 14,1 16,0 3 2 7 4 SSW 1019,5 14 0 0,0
22.09.2017 06:00:00 12,5 10,7 12,1 14,1 16,0 4 2 6 3 WSW 1019,4 14 0 0,0
22.09.2017 05:00:00 12,2 10,4 11,3 14,1 16,0 6 3 8 5 WSW 1019,5 15 0 0,0
22.09.2017 04:00:00 11,0 9,4 9,5 14,2 16,0 3 2 4 2 SSE 1019,4 14 0 0,0
22.09.2017 03:00:00 10,6 9,0 7,9 14,4 16,0 0 0 5 3 N 1019,4 14 0 0,0
22.09.2017 02:00:00 11,5 9,1 9,6 14,6 16,0 4 2 9 5 S 1019,4 17 0 0,0
22.09.2017 01:00:00 11,9 9,3 10,7 14,8 16,0 3 1 7 4 SE 1018,9 18 0 0,0
22.09.2017 00:00:00 12,6 9,4 11,5 15,0 16,0 4 2 8 5 SE 1018,9 17 0 0,0
21.09.2017 23:00:00 13,3 9,9 12,5 15,2 16,0 4 2 9 5 SSE 1018,8 19 0 0,0
21.09.2017 22:00:00 13,6 10,2 12,5 15,4 16,0 7 4 14 7 SE 1018,8 30 0 0,0
21.09.2017 21:00:00 14,4 10,4 12,9 15,7 16,0 9 5 13 7 SE 1018,5 36 0 0,0
21.09.2017 20:00:00 15,7 10,7 14,5 15,8 16,0 8 5 17 9 SE 1018,2 20 0 0,0
21.09.2017 19:00:00 18,5 10,1 18,8 15,8 16,0 8 4 23 12 SSE 1017,9 59 45 0,0
21.09.2017 18:00:00 19,4 10,1 21,2 15,7 16,0 15 8 31 17 S 1017,5 20 60 0,0
21.09.2017 17:00:00 19,5 9,7 22,1 15,5 16,0 17 9 29 16 SSE 1017,5 27 60 0,0
21.09.2017 16:00:00 19,7 9,3 21,8 15,1 16,0 20 11 33 18 S 1017,8 20 60 0,0
21.09.2017 15:00:00 18,9 8,8 20,8 14,7 16,0 17 9 33 18 SSE 1018,2 18 55 0,0
21.09.2017 14:00:00 19,1 9,0 21,7 14,2 16,0 23 12 35 19 S 1018,6 13 60 0,0
21.09.2017 13:00:00 18,0 9,1 20,6 13,7 16,0 19 11 34 19 S 1019,0 13 60 0,0
21.09.2017 12:00:00 16,6 9,5 17,9 13,4 16,0 15 8 29 16 SSE 1019,2 12 60 0,0
21.09.2017 11:00:00 14,3 9,3 14,8 13,1 16,0 14 8 22 12 SSE 1019,4 10 60 0,0
21.09.2017 10:00:00 12,0 8,7 11,6 13,0 16,0 12 7 26 14 SSE 1019,6 13 52 0,0
21.09.2017 09:00:00 10,1 8,2 8,5 13,1 16,0 11 6 17 9 SE 1019,5 16 32 0,0
21.09.2017 08:00:00 8,4 7,6 7,6 13,3 16,1 8 4 14 8 SSE 1019,5 11 0 0,0
21.09.2017 07:00:00 8,4 7,5 7,1 13,4 16,1 9 5 14 7 SE 1019,3 10 0 0,0
21.09.2017 06:00:00 8,6 7,7 7,5 13,6 16,0 8 5 16 9 SE 1019,4 9 0 0,0
21.09.2017 05:00:00 8,9 8,0 8,1 13,8 16,1 9 5 16 9 SE 1019,7 10 0 0,0
21.09.2017 04:00:00 9,2 8,0 8,7 14,0 16,0 8 4 13 7 SSE 1019,9 11 0 0,0
21.09.2017 03:00:00 9,7 8,5 9,2 14,2 16,0 8 5 14 8 SE 1020,0 13 0 0,0
21.09.2017 02:00:00 10,0 8,6 9,3 14,4 16,1 10 5 14 7 SSE 1020,1 16 0 0,0
21.09.2017 01:00:00 10,5 8,9 9,9 14,6 16,1 9 5 13 7 SSE 1020,1 19 0 0,0
21.09.2017 00:00:00 10,9 9,2 10,2 14,8 16,1 8 4 16 8 SSE 1020,0 18 0 0,0
20.09.2017 23:00:00 11,6 9,8 10,7 15,1 16,1 6 3 11 6 SE 1020,0 17 0 0,0
20.09.2017 22:00:00 12,8 10,3 11,5 15,3 16,1 5 3 6 4 ESE 1020,2 27 0 0,0
20.09.2017 21:00:00 14,1 10,3 12,7 15,5 16,1 4 2 5 3 SSE 1020,3 36 0 0,0
20.09.2017 20:00:00 15,4 10,2 14,7 15,6 16,1 5 3 13 7 SSW 1020,1 3,0 0 0,0
20.09.2017 19:00:00 16,4 10,5 16,2 15,6 16,1 9 5 23 12 SW 1020,1 60 14 0,0
20.09.2017 18:00:00 16,6 9,8 16,8 15,5 16,1 15 8 26 14 WSW 1020,3 53 31 0,0
20.09.2017 17:00:00 17,3 10,4 18,3 15,3 16,1 20 11 32 17 WSW 1020,7 20 30 0,0
20.09.2017 16:00:00 17,7 10,6 17,6 15,1 16,1 18 10 31 17 SW 1020,8 58 8 0,0
20.09.2017 15:00:00 17,0 9,7 17,6 14,8 16,1 16 9 29 16 SW 1020,9 47 12 0,0
20.09.2017 14:00:00 17,1 8,8 17,8 14,4 16,1 19 11 29 15 S 1021,2 20 20 0,0
20.09.2017 13:00:00 16,7 10,3 17,3 13,9 16,1 16 9 30 16 SW 1021,4 33 43 0,0
20.09.2017 12:00:00 15,8 11,2 17,9 13,4 16,1 15 8 28 15 SW 1021,8 19 60 0,0
20.09.2017 11:00:00 14,4 11,2 14,3 13,2 16,1 11 6 21 12 SSW 1021,9 16 45 0,0
20.09.2017 10:00:00 12,0 10,1 11,3 13,0 16,1 8 4 11 6 SSW 1022,0 17 5 0,0
20.09.2017 09:00:00 10,1 8,9 9,4 13,0 16,1 6 4 10 5 S 1021,8 12 13 0,0
20.09.2017 08:00:00 9,2 8,1 7,7 13,2 16,2 6 3 11 6 S 1021,8 8 0 0,0
20.09.2017 07:00:00 8,6 7,5 7,7 13,3 16,1 3 1 9 5 SSW 1021,5 9 0 0,2
20.09.2017 06:00:00 8,2 7,4 6,1 13,4 16,2 6 3 8 5 S 1021,7 9 0 0,0
20.09.2017 05:00:00 7,5 6,4 5,2 13,6 16,2 2 1 4 2 SSE 1021,9 8 0 0,0
20.09.2017 04:00:00 8,2 7,1 5,8 13,8 16,1 0 0 10 5 N 1022,1 9 0 0,0
20.09.2017 03:00:00 8,1 6,9 5,1 14,1 16,2 9 5 10 6 WSW 1022,4 8 0 0,0
20.09.2017 02:00:00 8,8 7,4 6,2 14,4 16,2 5 3 9 5 WSW 1022,6 9 0 0,0
20.09.2017 01:00:00 10,0 7,9 8,8 14,6 16,2 9 5 12 7 SW 1022,6 10 0 0,0
20.09.2017 00:00:00 11,4 9,6 10,9 14,7 16,2 9 5 13 7 WSW 1022,7 11 0 0,0
19.09.2017 23:00:00 12,5 10,4 12,4 14,8 16,2 10 5 16 9 WSW 1022,7 13 0 0,0
19.09.2017 22:00:00 12,8 11,0 12,4 14,9 16,2 7 4 16 8 W 1022,6 12 0 0,0
19.09.2017 21:00:00 13,1 11,0 12,7 15,1 16,2 10 5 26 14 WNW 1022,3 16 0 0,0
19.09.2017 20:00:00 13,5 10,8 13,2 15,2 16,2 19 10 36 19 NW 1021,9 16 0 0,0
19.09.2017 19:00:00 14,3 10,7 14,4 15,3 16,2 18 10 35 19 NW 1021,4 19 0 0,0
19.09.2017 18:00:00 15,6 11,8 15,9 15,2 16,2 24 13 36 20 NW 1020,8 19 31 0,0
19.09.2017 17:00:00 15,6 11,2 14,5 15,1 16,2 11 6 31 17 NNW 1020,4 49 4 0,0
19.09.2017 16:00:00 15,2 12,1 13,4 15,0 16,2 11 6 24 13 W 1020,4 20 0 3,7
19.09.2017 15:00:00 16,4 10,3 16,0 14,6 16,2 13 7 25 13 WNW 1020,3 33 33 0,0
19.09.2017 14:00:00 16,2 12,0 13,5 14,2 16,2 10 6 23 12 NW 1020,0 44 32 0,4
19.09.2017 13:00:00 13,4 11,8 13,1 13,8 16,2 20 11 39 21 WNW 1020,4 3,4 12 2,4
19.09.2017 12:00:00 14,5 10,7 15,3 13,5 16,2 20 11 39 21 WNW 1019,8 20 19 0,0
19.09.2017 11:00:00 14,0 11,2 14,1 13,2 16,2 19 10 32 17 NW 1019,8 20 47 0,0
19.09.2017 10:00:00 12,4 10,8 13,3 13,1 16,2 16 9 24 13 W 1018,8 18 60 0,2
19.09.2017 09:00:00 10,7 9,9 9,4 13,1 16,2 15 8 22 12 W 1018,1 16 25 0,0
19.09.2017 08:00:00 9,4 8,9 8,4 13,2 16,3 12 6 16 9 W 1018,4 12 0 0,0
19.09.2017 07:00:00 9,2 8,6 7,5 13,3 16,3 10 5 16 9 WNW 1018,1 14 0 0,0
19.09.2017 06:00:00 9,0 8,2 7,7 13,5 16,3 12 6 15 8 W 1017,6 7 0 0,0
19.09.2017 05:00:00 9,6 8,8 8,6 13,6 16,3 14 8 15 8 WSW 1017,4 6 0 0,2
19.09.2017 04:00:00 10,0 9,2 9,5 13,7 16,3 13 7 16 9 W 1017,6 9 0 0,0
19.09.2017 03:00:00 10,2 9,4 9,6 13,8 16,3 11 6 16 8 W 1017,5 11 0 0,0
19.09.2017 02:00:00 10,1 9,3 9,4 14,0 16,3 12 6 18 10 W 1017,6 13 0 0,0
19.09.2017 01:00:00 10,4 9,6 8,9 14,1 16,3 14 8 19 10 W 1017,4 18 0 0,2
19.09.2017 00:00:00 10,1 9,0 9,2 14,3 16,3 12 6 14 8 WSW 1017,5 18 0 0,0
18.09.2017 23:00:00 10,9 9,7 10,1 14,4 16,3 14 8 19 11 W 1017,6 58 0 0,2
18.09.2017 22:00:00 11,7 10,4 11,1 14,5 16,3 15 8 25 14 W 1017,5 17 0 0,0
18.09.2017 21:00:00 11,8 10,5 10,0 14,7 16,3 11 6 16 8 WSW 1017,1 20 0 0,0
18.09.2017 20:00:00 11,9 10,1 11,0 14,7 16,3 6 3 20 11 WNW 1016,6 49 0 0,0
18.09.2017 19:00:00 13,2 10,7 12,2 14,7 16,3 14 8 21 12 WNW 1016,1 58 19 0,4
18.09.2017 18:00:00 12,7 11,4 12,2 14,6 16,3 14 8 18 10 W 1016,1 12 2 0,8
18.09.2017 17:00:00 12,7 10,8 11,8 14,5 16,3 11 6 21 12 W 1016,2 43 5 0,2
18.09.2017 16:00:00 11,9 10,3 11,3 14,4 16,3 14 8 21 11 W 1015,9 49 0 0,4
18.09.2017 15:00:00 11,1 10,2 10,5 14,5 16,3 14 8 25 13 W 1015,8 20 0 4,3
18.09.2017 14:00:00 11,6 9,3 11,0 14,5 16,4 18 10 39 21 W 1015,9 10 0 2,0
18.09.2017 13:00:00 13,6 11,3 12,9 14,2 16,4 28 15 45 25 W 1015,4 7 2 0,6
18.09.2017 12:00:00 14,4 10,2 14,8 13,8 16,4 21 11 32 17 W 1015,3 27 35 0,0
18.09.2017 11:00:00 13,6 10,8 13,6 13,5 16,3 21 11 29 16 W 1015,4 18 37 0,0
18.09.2017 10:00:00 12,2 10,6 12,7 13,4 16,4 16 9 22 12 WSW 1015,3 17 60 0,0
18.09.2017 09:00:00 10,3 9,4 7,5 13,5 16,4 8 5 13 7 SW 1015,0 18 52 0,0
18.09.2017 08:00:00 8,4 7,6 7,5 13,7 16,4 7 4 11 6 SW 1014,8 8 0 0,2
18.09.2017 07:00:00 9,1 8,3 7,6 13,9 16,4 8 5 12 6 WSW 1014,5 4,8 0 0,0
18.09.2017 06:00:00 9,6 8,7 8,6 14,0 16,4 7 4 13 7 WSW 1014,3 8 0 0,0
18.09.2017 05:00:00 10,4 9,5 9,8 14,1 16,4 8 4 15 8 W 1014,1 16 0 0,2
18.09.2017 04:00:00 10,5 9,4 10,1 14,2 16,4 10 5 13 7 WSW 1014,3 16 0 0,2
18.09.2017 03:00:00 10,9 9,8 10,4 14,3 16,4 8 5 20 11 WSW 1014,4 12 0 0,4
18.09.2017 02:00:00 11,1 9,7 10,1 14,4 16,4 11 6 19 10 WSW 1014,3 12 0 0,2
18.09.2017 01:00:00 10,3 9,1 8,5 14,6 16,4 10 5 13 7 W 1014,4 18 0 0,0
18.09.2017 00:00:00 10,4 8,5 8,9 14,8 16,4 11 6 14 8 WSW 1014,6 20 0 0,0
17.09.2017 23:00:00 11,1 8,7 10,3 15,1 16,4 12 7 17 9 WSW 1014,6 22 0 0,0
17.09.2017 22:00:00 11,7 9,6 10,6 15,3 16,4 10 5 13 7 WSW 1014,5 20 0 0,0

tt = Température de l'air
td = dewpoint
tt 5cm = Température de l'air 5cm
tt -20cm = Température de l'air -20cm
tt -100cm = Température de l'air -100cm
ff = Vitesse du vent
fx = gusts
dd = Direction du vent
ppp = reduced air pressure
vv = visibility
sd = Ensoleillement
rr = Quantités de précipitations

stations d'obs. à proximité